| time (UTC) | temp F | wind direction | speed MPH | gust MPH | rain 1hr in | rain 24hr in | rain mn in | humidity % | barometer mb |
| 20260509022001 | 59 | 0 | 0.0 | 0.0 | 0.00 | 0.00 | 0.00 | 90 | 1014.5 |
| 20260509021457 | 59 | 0 | 0.0 | 0.0 | 0.00 | 0.00 | 0.00 | 90 | 1014.5 |
| 20260509020954 | 59 | 0 | 0.0 | 0.0 | 0.00 | 0.00 | 0.00 | 90 | 1014.8 |
| 20260509020453 | 59 | 0 | 1.0 | 1.0 | 0.00 | 0.00 | 0.00 | 91 | 1014.4 |
| 20260509015949 | 59 | 14 | 0.0 | 1.0 | 0.00 | 0.00 | 0.00 | 90 | 1014.5 |
| 20260509015448 | 59 | 15 | 0.0 | 2.0 | 0.00 | 0.00 | 0.00 | 89 | 1014.5 |
| 20260509014944 | 59 | 18 | 1.0 | 2.0 | 0.00 | 0.00 | 0.00 | 89 | 1014.5 |
| 20260509014441 | 60 | 29 | 0.0 | 0.0 | 0.00 | 0.00 | 0.00 | 89 | 1014.6 |
| 20260509013937 | 60 | 29 | 0.0 | 1.0 | 0.00 | 0.00 | 0.00 | 90 | 1014.7 |
| 20260509013435 | 60 | 14 | 0.0 | 2.0 | 0.00 | 0.00 | 0.00 | 89 | 1014.7 |
| 20260509012930 | 60 | 0 | 0.0 | 1.0 | 0.00 | 0.00 | 0.00 | 88 | 1014.5 |
| 20260509012427 | 60 | 8 | 0.0 | 0.0 | 0.00 | 0.00 | 0.00 | 87 | 1014.5 |
| 20260509011924 | 60 | 8 | 0.0 | 0.0 | 0.00 | 0.00 | 0.00 | 87 | 1014.3 |
| 20260509011421 | 60 | 8 | 0.0 | 0.0 | 0.00 | 0.00 | 0.00 | 87 | 1014.5 |
| 20260509010919 | 60 | 15 | 0.0 | 1.0 | 0.00 | 0.00 | 0.00 | 87 | 1014.0 |
| 20260509010417 | 61 | 352 | 0.0 | 0.0 | 0.00 | 0.00 | 0.00 | 87 | 1014.2 |
| 20260509005913 | 61 | 0 | 0.0 | 0.0 | 0.00 | 0.00 | 0.00 | 87 | 1014.2 |
| 20260509005411 | 61 | 270 | 0.0 | 0.0 | 0.00 | 0.00 | 0.00 | 86 | 1014.2 |
| 20260509004911 | 61 | 270 | 0.0 | 0.0 | 0.00 | 0.00 | 0.00 | 85 | 1014.2 |
| 20260509004408 | 62 | 286 | 0.0 | 0.0 | 0.00 | 0.00 | 0.00 | 84 | 1014.0 |
| 20260509003906 | 61 | 345 | 0.0 | 0.0 | 0.00 | 0.00 | 0.00 | 85 | 1014.0 |
| 20260509003403 | 62 | 345 | 0.0 | 0.0 | 0.00 | 0.00 | 0.00 | 86 | 1013.9 |
| 20260509002900 | 62 | 345 | 0.0 | 1.0 | 0.00 | 0.00 | 0.00 | 84 | 1013.9 |
| 20260509002358 | 62 | 0 | 0.0 | 0.0 | 0.00 | 0.00 | 0.00 | 84 | 1014.3 |
| 20260509001855 | 62 | 0 | 0.0 | 0.0 | 0.00 | 0.00 | 0.00 | 82 | 1014.3 |
| 20260509001351 | 63 | 0 | 0.0 | 0.0 | 0.00 | 0.00 | 0.00 | 82 | 1014.1 |
| 20260509000849 | 63 | 352 | 0.0 | 1.0 | 0.00 | 0.00 | 0.00 | 81 | 1014.2 |
| 20260509000348 | 63 | 0 | 0.0 | 0.0 | 0.00 | 0.00 | 0.00 | 80 | 1014.1 |
| 20260508235842 | 63 | 0 | 0.0 | 0.0 | 0.00 | 0.00 | 0.00 | 79 | 1014.1 |
| 20260508235339 | 64 | 352 | 0.0 | 0.0 | 0.00 | 0.00 | 0.00 | 78 | 1014.3 |
| 20260508234836 | 64 | 352 | 0.0 | 0.0 | 0.00 | 0.00 | 0.00 | 77 | 1014.0 |
| 20260508234333 | 64 | 352 | 0.0 | 0.0 | 0.00 | 0.00 | 0.00 | 77 | 1014.2 |
| 20260508233831 | 64 | 352 | 0.0 | 0.0 | 0.00 | 0.00 | 0.00 | 77 | 1014.0 |
| 20260508233330 | 64 | 352 | 0.0 | 0.0 | 0.00 | 0.00 | 0.00 | 77 | 1013.9 |
| 20260508232827 | 65 | 352 | 0.0 | 0.0 | 0.00 | 0.00 | 0.00 | 76 | 1013.8 |
| 20260508232323 | 65 | 352 | 0.0 | 0.0 | 0.00 | 0.00 | 0.00 | 76 | 1014.0 |
| 20260508231822 | 65 | 0 | 0.0 | 0.0 | 0.00 | 0.00 | 0.00 | 74 | 1014.0 |
| 20260508231317 | 66 | 180 | 0.0 | 0.0 | 0.00 | 0.00 | 0.00 | 72 | 1013.9 |
| 20260508230814 | 67 | 180 | 0.0 | 0.0 | 0.00 | 0.00 | 0.00 | 72 | 1014.0 |
| 20260508230311 | 67 | 180 | 0.0 | 0.0 | 0.00 | 0.00 | 0.00 | 71 | 1014.0 |
| 20260508225809 | 67 | 180 | 0.0 | 0.0 | 0.00 | 0.00 | 0.00 | 68 | 1014.1 |
| 20260508225306 | 67 | 180 | 0.0 | 0.0 | 0.00 | 0.00 | 0.00 | 68 | 1014.1 |
| 20260508224803 | 68 | 180 | 0.0 | 0.0 | 0.00 | 0.00 | 0.00 | 67 | 1013.9 |
| 20260508224300 | 68 | 180 | 0.0 | 0.0 | 0.00 | 0.00 | 0.00 | 67 | 1014.0 |
| 20260508223758 | 68 | 8 | 0.0 | 1.0 | 0.00 | 0.00 | 0.00 | 66 | 1014.0 |
| 20260508223255 | 68 | 0 | 0.0 | 1.0 | 0.00 | 0.00 | 0.00 | 65 | 1014.1 |
| 20260508222752 | 68 | 186 | 0.0 | 0.0 | 0.00 | 0.00 | 0.00 | 64 | 1014.1 |
| 20260508222249 | 68 | 172 | 0.0 | 0.0 | 0.00 | 0.00 | 0.00 | 66 | 1014.0 |
| 20260508221746 | 68 | 0 | 0.0 | 1.0 | 0.00 | 0.00 | 0.00 | 64 | 1014.0 |
| 20260508221242 | 68 | 0 | 0.0 | 1.0 | 0.00 | 0.00 | 0.00 | 63 | 1014.2 |
| 20260508220738 | 68 | 306 | 1.0 | 2.0 | 0.00 | 0.00 | 0.00 | 62 | 1014.2 |
| 20260508220235 | 68 | 279 | 0.0 | 0.0 | 0.00 | 0.00 | 0.00 | 62 | 1014.1 |
| 20260508215731 | 69 | 23 | 0.0 | 0.0 | 0.00 | 0.00 | 0.00 | 62 | 1014.0 |
| 20260508215227 | 69 | 262 | 0.0 | 2.0 | 0.00 | 0.00 | 0.00 | 63 | 1014.1 |
| 20260508214725 | 69 | 23 | 0.0 | 3.0 | 0.00 | 0.00 | 0.00 | 62 | 1013.9 |
| 20260508214222 | 69 | 0 | 0.0 | 1.0 | 0.00 | 0.00 | 0.00 | 61 | 1014.0 |
| 20260508213718 | 69 | 306 | 0.0 | 2.0 | 0.00 | 0.00 | 0.00 | 61 | 1013.9 |
| 20260508213215 | 69 | 246 | 0.0 | 2.0 | 0.00 | 0.00 | 0.00 | 62 | 1014.0 |
| 20260508212712 | 69 | 180 | 2.0 | 2.0 | 0.00 | 0.00 | 0.00 | 59 | 1013.8 |
| 20260508212208 | 70 | 279 | 0.0 | 2.0 | 0.00 | 0.00 | 0.00 | 60 | 1014.0 |
| 20260508211704 | 69 | 180 | 0.0 | 3.0 | 0.00 | 0.00 | 0.00 | 60 | 1014.1 |
| 20260508211200 | 69 | 277 | 0.0 | 2.0 | 0.00 | 0.00 | 0.00 | 61 | 1014.0 |
| 20260508210657 | 70 | 169 | 2.0 | 3.0 | 0.00 | 0.00 | 0.00 | 58 | 1014.0 |
| 20260508210154 | 70 | 173 | 0.0 | 1.0 | 0.00 | 0.00 | 0.00 | 60 | 1014.0 |
| 20260508205651 | 70 | 334 | 0.0 | 2.0 | 0.00 | 0.00 | 0.00 | 62 | 1014.2 |
| 20260508205147 | 70 | 63 | 1.0 | 3.0 | 0.00 | 0.00 | 0.00 | 59 | 1014.2 |
| 20260508204644 | 71 | 300 | 0.0 | 4.0 | 0.00 | 0.00 | 0.00 | 62 | 1014.2 |
| 20260508204140 | 71 | 208 | 3.0 | 3.0 | 0.00 | 0.00 | 0.00 | 57 | 1014.2 |
| 20260508203636 | 71 | 300 | 0.0 | 3.0 | 0.00 | 0.00 | 0.00 | 58 | 1014.3 |
| 20260508203133 | 70 | 174 | 6.0 | 6.0 | 0.00 | 0.00 | 0.00 | 58 | 1014.0 |
| 20260508202629 | 71 | 270 | 0.0 | 2.0 | 0.00 | 0.00 | 0.00 | 58 | 1014.2 |
| 20260508202126 | 71 | 294 | 2.0 | 4.0 | 0.00 | 0.00 | 0.00 | 60 | 1014.2 |
| 20260508201623 | 71 | 0 | 0.0 | 2.0 | 0.00 | 0.00 | 0.00 | 56 | 1014.4 |
| 20260508201119 | 71 | 96 | 0.0 | 2.0 | 0.00 | 0.00 | 0.00 | 56 | 1014.4 |
| 20260508200616 | 71 | 291 | 0.0 | 5.0 | 0.00 | 0.00 | 0.00 | 57 | 1014.6 |
| 20260508200112 | 71 | 291 | 1.0 | 3.0 | 0.00 | 0.00 | 0.00 | 57 | 1014.6 |
| 20260508195609 | 71 | 306 | 0.0 | 5.0 | 0.00 | 0.00 | 0.00 | 57 | 1014.6 |
| 20260508195105 | 72 | 261 | 0.0 | 1.0 | 0.00 | 0.00 | 0.00 | 57 | 1014.6 |
| 20260508194602 | 72 | 286 | 0.0 | 3.0 | 0.00 | 0.00 | 0.00 | 58 | 1014.5 |
| 20260508194059 | 71 | 164 | 0.0 | 4.0 | 0.00 | 0.00 | 0.00 | 54 | 1014.7 |
| 20260508193556 | 71 | 180 | 1.0 | 5.0 | 0.00 | 0.00 | 0.00 | 56 | 1014.7 |
| 20260508193053 | 73 | 169 | 3.0 | 4.0 | 0.00 | 0.00 | 0.00 | 53 | 1015.1 |
| 20260508192549 | 73 | 337 | 0.0 | 3.0 | 0.00 | 0.00 | 0.00 | 57 | 1015.0 |
| 20260508192047 | 71 | 246 | 0.0 | 2.0 | 0.00 | 0.00 | 0.00 | 58 | 1015.2 |
| 20260508191543 | 71 | 340 | 1.0 | 3.0 | 0.00 | 0.00 | 0.00 | 56 | 1015.3 |
| 20260508191040 | 71 | 278 | 0.0 | 2.0 | 0.00 | 0.00 | 0.00 | 59 | 1015.1 |
| 20260508190537 | 71 | 180 | 2.0 | 3.0 | 0.00 | 0.00 | 0.00 | 56 | 1015.3 |
| 20260508190033 | 71 | 200 | 3.0 | 4.0 | 0.00 | 0.00 | 0.00 | 56 | 1015.0 |
| 20260508185531 | 71 | 342 | 1.0 | 5.0 | 0.00 | 0.00 | 0.00 | 55 | 1015.4 |
| 20260508185028 | 72 | 167 | 5.0 | 5.0 | 0.00 | 0.00 | 0.00 | 56 | 1015.5 |
| 20260508184526 | 72 | 276 | 1.0 | 5.0 | 0.00 | 0.00 | 0.00 | 55 | 1015.6 |
| 20260508184022 | 70 | 168 | 1.0 | 7.0 | 0.00 | 0.00 | 0.00 | 54 | 1015.4 |
| 20260508183519 | 71 | 180 | 4.0 | 6.0 | 0.00 | 0.00 | 0.00 | 54 | 1015.4 |
| 20260508183015 | 70 | 79 | 0.0 | 3.0 | 0.00 | 0.00 | 0.00 | 55 | 1015.7 |
| 20260508182511 | 70 | 165 | 2.0 | 3.0 | 0.00 | 0.00 | 0.00 | 55 | 1015.7 |
| 20260508182008 | 71 | 34 | 2.0 | 4.0 | 0.00 | 0.00 | 0.00 | 58 | 1015.8 |
| 20260508181503 | 69 | 213 | 0.0 | 3.0 | 0.00 | 0.00 | 0.00 | 58 | 1016.0 |
| 20260508181001 | 69 | 261 | 0.0 | 3.0 | 0.00 | 0.00 | 0.00 | 58 | 1016.3 |
| 20260508180458 | 70 | 5 | 1.0 | 2.0 | 0.00 | 0.00 | 0.00 | 58 | 1016.0 |
| 20260508175954 | 69 | 184 | 0.0 | 3.0 | 0.00 | 0.00 | 0.00 | 57 | 1015.9 |
| 20260508175450 | 70 | 4 | 2.0 | 5.0 | 0.00 | 0.00 | 0.00 | 59 | 1016.0 |
| 20260508174948 | 70 | 109 | 4.0 | 4.0 | 0.00 | 0.00 | 0.00 | 58 | 1016.3 |
| 20260508174445 | 70 | 192 | 3.0 | 6.0 | 0.00 | 0.00 | 0.00 | 57 | 1016.0 |
| 20260508173942 | 71 | 7 | 0.0 | 5.0 | 0.00 | 0.00 | 0.00 | 56 | 1016.4 |
| 20260508173439 | 72 | 172 | 4.0 | 4.0 | 0.00 | 0.00 | 0.00 | 57 | 1016.6 |
| 20260508172935 | 69 | 277 | 3.0 | 5.0 | 0.00 | 0.00 | 0.00 | 57 | 1016.3 |
| 20260508172433 | 69 | 195 | 1.0 | 3.0 | 0.00 | 0.00 | 0.00 | 57 | 1016.5 |
| 20260508171929 | 70 | 18 | 0.0 | 5.0 | 0.00 | 0.00 | 0.00 | 58 | 1016.7 |
| 20260508171425 | 71 | 270 | 2.0 | 3.0 | 0.00 | 0.00 | 0.00 | 61 | 1016.6 |
| 20260508170922 | 69 | 144 | 0.0 | 6.0 | 0.00 | 0.00 | 0.00 | 58 | 1016.8 |
| 20260508170419 | 70 | 0 | 1.0 | 4.0 | 0.00 | 0.00 | 0.00 | 58 | 1016.7 |
| 20260508165916 | 71 | 341 | 2.0 | 4.0 | 0.00 | 0.00 | 0.00 | 59 | 1016.9 |
| 20260508165414 | 70 | 177 | 2.0 | 4.0 | 0.00 | 0.00 | 0.00 | 56 | 1016.9 |
| 20260508164909 | 67 | 194 | 0.0 | 4.0 | 0.00 | 0.00 | 0.00 | 59 | 1017.2 |
| 20260508164407 | 68 | 0 | 0.0 | 5.0 | 0.00 | 0.00 | 0.00 | 59 | 1017.1 |
| 20260508163904 | 70 | 312 | 2.0 | 4.0 | 0.00 | 0.00 | 0.00 | 57 | 1017.2 |
| 20260508163402 | 69 | 299 | 2.0 | 6.0 | 0.00 | 0.00 | 0.00 | 58 | 1017.3 |
| 20260508162857 | 69 | 188 | 3.0 | 5.0 | 0.00 | 0.00 | 0.00 | 60 | 1017.5 |
| 20260508162354 | 69 | 270 | 0.0 | 4.0 | 0.00 | 0.00 | 0.00 | 56 | 1017.6 |
| 20260508161851 | 69 | 188 | 0.0 | 3.0 | 0.00 | 0.00 | 0.00 | 56 | 1017.3 |
| 20260508161349 | 69 | 210 | 5.0 | 5.0 | 0.00 | 0.00 | 0.00 | 57 | 1017.6 |
| 20260508160846 | 68 | 90 | 0.0 | 6.0 | 0.00 | 0.00 | 0.00 | 58 | 1017.8 |
| 20260508160345 | 69 | 270 | 0.0 | 4.0 | 0.00 | 0.00 | 0.00 | 59 | 1017.7 |
| 20260508155840 | 69 | 168 | 3.0 | 7.0 | 0.00 | 0.00 | 0.00 | 56 | 1017.7 |
| 20260508155338 | 69 | 180 | 2.0 | 2.0 | 0.00 | 0.00 | 0.00 | 57 | 1017.6 |
| 20260508154834 | 69 | 240 | 2.0 | 6.0 | 0.00 | 0.00 | 0.00 | 60 | 1018.1 |
| 20260508154332 | 69 | 290 | 2.0 | 5.0 | 0.00 | 0.00 | 0.00 | 56 | 1017.8 |
| 20260508153828 | 68 | 203 | 0.0 | 4.0 | 0.00 | 0.00 | 0.00 | 58 | 1018.1 |
| 20260508153326 | 68 | 165 | 1.0 | 4.0 | 0.00 | 0.00 | 0.00 | 59 | 1018.2 |
| 20260508152821 | 67 | 189 | 3.0 | 6.0 | 0.00 | 0.00 | 0.00 | 60 | 1018.3 |
| 20260508152318 | 68 | 59 | 0.0 | 3.0 | 0.00 | 0.00 | 0.00 | 59 | 1018.3 |
| 20260508151815 | 68 | 30 | 2.0 | 5.0 | 0.00 | 0.00 | 0.00 | 61 | 1018.2 |
| 20260508151312 | 68 | 358 | 3.0 | 5.0 | 0.00 | 0.00 | 0.00 | 61 | 1018.2 |
| 20260508150808 | 67 | 322 | 3.0 | 5.0 | 0.00 | 0.00 | 0.00 | 65 | 1018.3 |
| 20260508150305 | 69 | 346 | 3.0 | 3.0 | 0.00 | 0.00 | 0.00 | 63 | 1018.4 |
| 20260508145802 | 68 | 203 | 2.0 | 3.0 | 0.00 | 0.00 | 0.00 | 66 | 1018.1 |
| 20260508145257 | 67 | 180 | 0.0 | 5.0 | 0.00 | 0.00 | 0.00 | 66 | 1018.2 |
| 20260508144754 | 67 | 347 | 3.0 | 4.0 | 0.00 | 0.00 | 0.00 | 64 | 1018.0 |
| 20260508144252 | 67 | 26 | 1.0 | 3.0 | 0.00 | 0.00 | 0.00 | 66 | 1018.2 |
| 20260508143749 | 64 | 355 | 0.0 | 3.0 | 0.00 | 0.00 | 0.00 | 68 | 1018.0 |
| 20260508143246 | 64 | 94 | 2.0 | 4.0 | 0.00 | 0.00 | 0.00 | 68 | 1018.0 |
| 20260508142743 | 65 | 351 | 2.0 | 3.0 | 0.00 | 0.00 | 0.00 | 68 | 1018.2 |
| 20260508142240 | 65 | 18 | 3.0 | 5.0 | 0.00 | 0.00 | 0.00 | 66 | 1017.9 |
| 20260508141736 | 65 | 26 | 1.0 | 4.0 | 0.00 | 0.00 | 0.00 | 67 | 1017.9 |
| 20260508141234 | 64 | 59 | 2.0 | 5.0 | 0.00 | 0.00 | 0.00 | 66 | 1018.0 |
| 20260508140731 | 65 | 29 | 2.0 | 5.0 | 0.00 | 0.00 | 0.00 | 67 | 1018.1 |
| 20260508140227 | 64 | 356 | 2.0 | 4.0 | 0.00 | 0.00 | 0.00 | 66 | 1018.2 |
| 20260508135724 | 64 | 38 | 2.0 | 4.0 | 0.00 | 0.00 | 0.00 | 68 | 1018.4 |
| 20260508135219 | 63 | 29 | 3.0 | 4.0 | 0.00 | 0.00 | 0.00 | 72 | 1018.4 |
| 20260508134710 | 65 | 45 | 2.0 | 3.0 | 0.00 | 0.00 | 0.00 | 72 | 1018.3 |
| 20260508134207 | 62 | 0 | 0.0 | 3.0 | 0.00 | 0.00 | 0.00 | 74 | 1018.6 |
| 20260508133704 | 62 | 20 | 0.0 | 3.0 | 0.00 | 0.00 | 0.00 | 76 | 1018.4 |
| 20260508133201 | 61 | 36 | 2.0 | 4.0 | 0.00 | 0.00 | 0.00 | 79 | 1018.4 |
| 20260508132659 | 62 | 0 | 0.0 | 3.0 | 0.00 | 0.00 | 0.00 | 81 | 1018.5 |
| 20260508132156 | 61 | 346 | 0.0 | 3.0 | 0.00 | 0.00 | 0.00 | 81 | 1018.5 |
| 20260508131651 | 61 | 15 | 0.0 | 2.0 | 0.00 | 0.00 | 0.00 | 84 | 1018.2 |
| 20260508131148 | 60 | 115 | 2.0 | 2.0 | 0.00 | 0.00 | 0.00 | 85 | 1018.2 |
| 20260508130645 | 59 | 40 | 0.0 | 2.0 | 0.00 | 0.00 | 0.00 | 86 | 1018.5 |
| 20260508130142 | 59 | 0 | 0.0 | 1.0 | 0.00 | 0.00 | 0.00 | 87 | 1018.4 |
| 20260508125637 | 59 | 0 | 0.0 | 2.0 | 0.00 | 0.00 | 0.00 | 87 | 1018.2 |
| 20260508125135 | 58 | 84 | 1.0 | 3.0 | 0.00 | 0.00 | 0.00 | 88 | 1018.3 |
| 20260508124633 | 57 | 45 | 0.0 | 3.0 | 0.00 | 0.00 | 0.00 | 91 | 1018.2 |
| 20260508124129 | 56 | 41 | 2.0 | 3.0 | 0.00 | 0.00 | 0.00 | 92 | 1018.2 |
| 20260508123628 | 55 | 77 | 1.0 | 3.0 | 0.00 | 0.00 | 0.00 | 93 | 1018.0 |
| 20260508123125 | 55 | 69 | 1.0 | 3.0 | 0.00 | 0.00 | 0.00 | 96 | 1017.9 |
| 20260508122621 | 54 | 83 | 0.0 | 2.0 | 0.00 | 0.00 | 0.00 | 98 | 1017.7 |
| 20260508122118 | 53 | 35 | 0.0 | 2.0 | 0.00 | 0.00 | 0.00 | 99 | 1017.9 |
| 20260508121617 | 53 | 67 | 2.0 | 2.0 | 0.00 | 0.00 | 0.00 | 99 | 1017.7 |
| 20260508121114 | 52 | 90 | 0.0 | 1.0 | 0.00 | 0.00 | 0.00 | 99 | 1017.6 |
| 20260508120611 | 51 | 75 | 0.0 | 1.0 | 0.00 | 0.00 | 0.00 | 99 | 1017.5 |
| 20260508120110 | 51 | 81 | 0.0 | 1.0 | 0.00 | 0.00 | 0.00 | 99 | 1017.5 |
| 20260508115607 | 51 | 45 | 0.0 | 2.0 | 0.00 | 0.00 | 0.00 | 99 | 1017.5 |
| 20260508115103 | 51 | 15 | 0.0 | 0.0 | 0.00 | 0.00 | 0.00 | 99 | 1017.2 |
| 20260508114601 | 50 | 15 | 0.0 | 1.0 | 0.00 | 0.00 | 0.00 | 99 | 1017.4 |
| 20260508114056 | 50 | 8 | 0.0 | 0.0 | 0.00 | 0.00 | 0.00 | 99 | 1017.3 |
| 20260508113554 | 50 | 353 | 0.0 | 1.0 | 0.00 | 0.00 | 0.00 | 99 | 1017.2 |
| 20260508113052 | 50 | 15 | 0.0 | 1.0 | 0.00 | 0.00 | 0.00 | 99 | 1017.0 |
| 20260508112548 | 50 | 66 | 0.0 | 1.0 | 0.00 | 0.00 | 0.00 | 99 | 1016.8 |
| 20260508112045 | 49 | 23 | 0.0 | 1.0 | 0.00 | 0.00 | 0.00 | 99 | 1017.1 |
| 20260508111542 | 50 | 8 | 0.0 | 0.0 | 0.00 | 0.00 | 0.00 | 99 | 1017.1 |
| 20260508111039 | 49 | 8 | 0.0 | 0.0 | 0.00 | 0.00 | 0.00 | 99 | 1016.7 |
| 20260508110537 | 49 | 8 | 0.0 | 0.0 | 0.00 | 0.00 | 0.00 | 99 | 1016.7 |
| 20260508110033 | 49 | 8 | 0.0 | 0.0 | 0.00 | 0.00 | 0.00 | 99 | 1016.3 |
| 20260508105527 | 49 | 7 | 0.0 | 1.0 | 0.00 | 0.00 | 0.00 | 99 | 1016.1 |
| 20260508105025 | 49 | 8 | 0.0 | 1.0 | 0.00 | 0.00 | 0.00 | 99 | 1016.0 |
| 20260508104523 | 49 | 8 | 0.0 | 1.0 | 0.00 | 0.00 | 0.00 | 99 | 1015.9 |
| 20260508104019 | 49 | 60 | 0.0 | 1.0 | 0.00 | 0.00 | 0.00 | 99 | 1015.9 |
| 20260508103516 | 49 | 0 | 1.0 | 1.0 | 0.00 | 0.00 | 0.00 | 99 | 1015.7 |
| 20260508103014 | 49 | 40 | 1.0 | 2.0 | 0.00 | 0.00 | 0.00 | 99 | 1015.9 |
| 20260508102511 | 49 | 7 | 1.0 | 1.0 | 0.00 | 0.00 | 0.00 | 99 | 1015.6 |
| 20260508102009 | 50 | 0 | 0.0 | 0.0 | 0.00 | 0.00 | 0.00 | 99 | 1015.8 |
| 20260508101506 | 50 | 0 | 0.0 | 0.0 | 0.00 | 0.00 | 0.00 | 99 | 1015.6 |
| 20260508101003 | 49 | 0 | 0.0 | 0.0 | 0.00 | 0.00 | 0.00 | 99 | 1015.5 |
| 20260508100501 | 49 | 0 | 0.0 | 0.0 | 0.00 | 0.00 | 0.00 | 99 | 1015.4 |
| 20260508095957 | 49 | 0 | 0.0 | 0.0 | 0.00 | 0.00 | 0.00 | 99 | 1015.5 |
| 20260508095455 | 49 | 0 | 0.0 | 0.0 | 0.00 | 0.00 | 0.00 | 99 | 1015.4 |
| 20260508094952 | 50 | 348 | 0.0 | 0.0 | 0.00 | 0.00 | 0.00 | 99 | 1015.4 |
| 20260508094448 | 50 | 348 | 0.0 | 1.0 | 0.00 | 0.00 | 0.00 | 99 | 1015.2 |
| 20260508093945 | 50 | 8 | 0.0 | 1.0 | 0.00 | 0.00 | 0.00 | 99 | 1015.2 |
| 20260508093442 | 50 | 26 | 1.0 | 2.0 | 0.00 | 0.00 | 0.00 | 99 | 1015.1 |
| 20260508092940 | 50 | 20 | 1.0 | 1.0 | 0.00 | 0.00 | 0.00 | 98 | 1015.1 |
| 20260508092438 | 50 | 14 | 1.0 | 2.0 | 0.00 | 0.00 | 0.00 | 98 | 1015.1 |
| 20260508091936 | 50 | 19 | 2.0 | 2.0 | 0.00 | 0.00 | 0.00 | 98 | 1015.3 |
| 20260508091432 | 50 | 42 | 3.0 | 3.0 | 0.00 | 0.00 | 0.00 | 99 | 1014.9 |
| 20260508090930 | 50 | 83 | 0.0 | 1.0 | 0.00 | 0.00 | 0.00 | 99 | 1014.8 |
| 20260508090429 | 51 | 0 | 0.0 | 0.0 | 0.00 | 0.00 | 0.00 | 99 | 1015.0 |
| 20260508085923 | 51 | 0 | 0.0 | 0.0 | 0.00 | 0.00 | 0.00 | 99 | 1014.9 |
| 20260508085421 | 51 | 188 | 0.0 | 1.0 | 0.00 | 0.00 | 0.00 | 99 | 1014.7 |
| 20260508084917 | 51 | 14 | 0.0 | 0.0 | 0.00 | 0.00 | 0.00 | 99 | 1014.6 |
| 20260508084414 | 51 | 261 | 0.0 | 0.0 | 0.00 | 0.00 | 0.00 | 99 | 1014.4 |
| 20260508083912 | 50 | 261 | 0.0 | 0.0 | 0.00 | 0.00 | 0.00 | 99 | 1014.6 |
| 20260508083409 | 50 | 157 | 0.0 | 0.0 | 0.00 | 0.00 | 0.00 | 99 | 1014.8 |
| 20260508082909 | 50 | 354 | 0.0 | 0.0 | 0.00 | 0.00 | 0.00 | 99 | 1014.5 |
| 20260508082406 | 50 | 354 | 0.0 | 0.0 | 0.00 | 0.00 | 0.00 | 99 | 1014.5 |
| 20260508081904 | 50 | 354 | 0.0 | 0.0 | 0.00 | 0.00 | 0.00 | 99 | 1014.5 |
| 20260508081401 | 50 | 354 | 0.0 | 1.0 | 0.00 | 0.00 | 0.00 | 99 | 1014.6 |
| 20260508080857 | 50 | 14 | 0.0 | 1.0 | 0.00 | 0.00 | 0.00 | 99 | 1014.5 |
| 20260508080355 | 50 | 7 | 0.0 | 0.0 | 0.00 | 0.00 | 0.00 | 99 | 1014.4 |
| 20260508075852 | 50 | 20 | 1.0 | 2.0 | 0.00 | 0.00 | 0.00 | 99 | 1014.4 |
| 20260508075349 | 50 | 0 | 0.0 | 1.0 | 0.00 | 0.00 | 0.00 | 99 | 1014.6 |
| 20260508074847 | 50 | 6 | 1.0 | 2.0 | 0.00 | 0.00 | 0.00 | 98 | 1014.5 |
| 20260508074343 | 50 | 12 | 1.0 | 2.0 | 0.00 | 0.00 | 0.00 | 98 | 1014.3 |
| 20260508073840 | 51 | 18 | 0.0 | 2.0 | 0.00 | 0.00 | 0.00 | 98 | 1014.6 |
| 20260508073338 | 51 | 352 | 0.0 | 0.0 | 0.00 | 0.00 | 0.00 | 98 | 1014.5 |
| 20260508072835 | 51 | 15 | 0.0 | 0.0 | 0.00 | 0.00 | 0.00 | 98 | 1014.6 |
| 20260508072331 | 51 | 15 | 0.0 | 0.0 | 0.00 | 0.00 | 0.00 | 98 | 1014.5 |
| 20260508071828 | 51 | 15 | 0.0 | 0.0 | 0.00 | 0.00 | 0.00 | 98 | 1014.7 |
| 20260508071327 | 51 | 15 | 0.0 | 0.0 | 0.00 | 0.00 | 0.00 | 98 | 1014.7 |
| 20260508070824 | 51 | 15 | 0.0 | 0.0 | 0.00 | 0.00 | 0.00 | 98 | 1014.5 |
| 20260508070322 | 51 | 15 | 0.0 | 0.0 | 0.00 | 0.00 | 0.00 | 98 | 1014.6 |
| 20260508065819 | 51 | 15 | 0.0 | 0.0 | 0.00 | 0.00 | 0.00 | 97 | 1014.7 |
| 20260508065317 | 51 | 15 | 0.0 | 0.0 | 0.00 | 0.00 | 0.00 | 97 | 1014.6 |
| 20260508064815 | 51 | 15 | 0.0 | 0.0 | 0.00 | 0.00 | 0.00 | 97 | 1014.9 |
| 20260508064312 | 52 | 15 | 0.0 | 0.0 | 0.00 | 0.00 | 0.00 | 97 | 1014.7 |
| 20260508063810 | 52 | 15 | 0.0 | 0.0 | 0.00 | 0.00 | 0.00 | 97 | 1014.5 |
| 20260508063308 | 52 | 15 | 0.0 | 0.0 | 0.00 | 0.00 | 0.00 | 96 | 1014.6 |
| 20260508062805 | 52 | 15 | 0.0 | 0.0 | 0.00 | 0.00 | 0.00 | 96 | 1014.5 |
| 20260508062306 | 52 | 15 | 0.0 | 1.0 | 0.00 | 0.00 | 0.00 | 95 | 1014.3 |
| 20260508061759 | 52 | 180 | 0.0 | 0.0 | 0.00 | 0.00 | 0.00 | 95 | 1014.5 |
| 20260508061256 | 53 | 180 | 0.0 | 0.0 | 0.00 | 0.00 | 0.00 | 95 | 1014.7 |
| 20260508060753 | 53 | 15 | 0.0 | 0.0 | 0.00 | 0.00 | 0.00 | 95 | 1014.7 |
| 20260508060251 | 53 | 15 | 0.0 | 1.0 | 0.00 | 0.00 | 0.00 | 94 | 1014.5 |
| 20260508055746 | 53 | 20 | 1.0 | 2.0 | 0.00 | 0.00 | 0.00 | 93 | 1014.6 |
| 20260508055243 | 54 | 209 | 0.0 | 0.0 | 0.00 | 0.00 | 0.00 | 93 | 1014.5 |
| 20260508054739 | 54 | 209 | 0.0 | 1.0 | 0.00 | 0.00 | 0.00 | 92 | 1014.6 |
| 20260508054238 | 54 | 0 | 0.0 | 0.0 | 0.00 | 0.00 | 0.00 | 91 | 1014.6 |
| 20260508053734 | 54 | 8 | 0.0 | 1.0 | 0.00 | 0.00 | 0.00 | 90 | 1014.6 |
| 20260508053231 | 55 | 0 | 1.0 | 2.0 | 0.00 | 0.00 | 0.00 | 90 | 1014.8 |
| 20260508052728 | 55 | 188 | 0.0 | 1.0 | 0.00 | 0.00 | 0.00 | 89 | 1014.8 |
| 20260508052226 | 55 | 246 | 0.0 | 0.0 | 0.00 | 0.00 | 0.00 | 89 | 1014.8 |
| 20260508051722 | 55 | 352 | 0.0 | 0.0 | 0.00 | 0.00 | 0.00 | 90 | 1014.7 |
| 20260508051217 | 55 | 15 | 0.0 | 1.0 | 0.00 | 0.00 | 0.00 | 89 | 1014.8 |
| 20260508050714 | 56 | 180 | 0.0 | 2.0 | 0.00 | 0.00 | 0.00 | 88 | 1014.6 |
| 20260508050212 | 56 | 198 | 0.0 | 1.0 | 0.00 | 0.00 | 0.00 | 88 | 1014.7 |
| 20260508045706 | 56 | 0 | 0.0 | 0.0 | 0.00 | 0.00 | 0.00 | 88 | 1014.8 |
| 20260508045205 | 56 | 261 | 0.0 | 0.0 | 0.00 | 0.00 | 0.00 | 88 | 1014.8 |
| 20260508044702 | 56 | 270 | 0.0 | 0.0 | 0.00 | 0.00 | 0.00 | 88 | 1014.6 |
| 20260508044158 | 57 | 212 | 0.0 | 0.0 | 0.00 | 0.00 | 0.00 | 87 | 1014.5 |
| 20260508043654 | 57 | 234 | 0.0 | 1.0 | 0.00 | 0.00 | 0.00 | 86 | 1014.6 |
| 20260508043152 | 57 | 261 | 0.0 | 2.0 | 0.00 | 0.00 | 0.00 | 86 | 1014.5 |
| 20260508042648 | 57 | 261 | 0.0 | 1.0 | 0.00 | 0.00 | 0.00 | 86 | 1014.5 |
| 20260508042146 | 57 | 243 | 0.0 | 1.0 | 0.00 | 0.00 | 0.00 | 85 | 1014.4 |
| 20260508041642 | 57 | 203 | 0.0 | 1.0 | 0.00 | 0.00 | 0.00 | 85 | 1014.3 |
| 20260508041139 | 57 | 180 | 0.0 | 0.0 | 0.00 | 0.00 | 0.00 | 84 | 1014.7 |
| 20260508040635 | 57 | 180 | 0.0 | 0.0 | 0.00 | 0.00 | 0.00 | 84 | 1014.4 |
| 20260508040133 | 58 | 209 | 0.0 | 1.0 | 0.00 | 0.00 | 0.00 | 84 | 1014.3 |
| 20260508035630 | 57 | 195 | 0.0 | 1.0 | 0.00 | 1.02 | 1.02 | 83 | 1014.3 |
| 20260508035128 | 58 | 270 | 0.0 | 0.0 | 0.00 | 1.02 | 1.02 | 84 | 1014.3 |
| 20260508034624 | 58 | 270 | 0.0 | 0.0 | 0.00 | 1.02 | 1.02 | 83 | 1014.2 |
| 20260508034121 | 59 | 270 | 0.0 | 0.0 | 0.00 | 1.02 | 1.02 | 82 | 1014.0 |
| 20260508033619 | 59 | 270 | 0.0 | 1.0 | 0.00 | 1.02 | 1.02 | 82 | 1014.2 |
| 20260508033117 | 59 | 270 | 0.0 | 1.0 | 0.00 | 1.02 | 1.02 | 82 | 1014.2 |
| 20260508032613 | 59 | 270 | 1.0 | 1.0 | 0.00 | 1.02 | 1.02 | 81 | 1014.3 |
| 20260508032111 | 59 | 286 | 0.0 | 0.0 | 0.00 | 1.02 | 1.02 | 81 | 1014.3 |
| 20260508031608 | 59 | 286 | 0.0 | 1.0 | 0.00 | 1.02 | 1.02 | 81 | 1014.2 |
| 20260508031103 | 59 | 203 | 0.0 | 1.0 | 0.00 | 1.02 | 1.02 | 80 | 1014.2 |
| 20260508030600 | 59 | 186 | 0.0 | 0.0 | 0.00 | 1.02 | 1.02 | 79 | 1014.6 |
| 20260508030058 | 60 | 261 | 0.0 | 0.0 | 0.00 | 1.02 | 1.02 | 80 | 1014.3 |
| 20260508025554 | 60 | 261 | 0.0 | 0.0 | 0.00 | 1.02 | 1.02 | 79 | 1014.2 |
| 20260508025051 | 60 | 0 | 0.0 | 1.0 | 0.00 | 1.02 | 1.02 | 79 | 1014.1 |
| 20260508024547 | 60 | 180 | 0.0 | 0.0 | 0.00 | 1.02 | 1.02 | 78 | 1013.9 |
| 20260508024044 | 60 | 233 | 0.0 | 2.0 | 0.00 | 1.02 | 1.02 | 78 | 1013.9 |
| 20260508023541 | 60 | 236 | 2.0 | 2.0 | 0.00 | 1.02 | 1.02 | 78 | 1013.8 |
| 20260508023038 | 60 | 270 | 1.0 | 2.0 | 0.00 | 1.02 | 1.02 | 79 | 1014.1 |
| 20260508022534 | 60 | 236 | 0.0 | 2.0 | 0.00 | 1.02 | 1.02 | 78 | 1013.8 |